Location: Little Maitland River
(43.8022°N, 81.1549°W)
Time: 00:43:45
(UTC+00:00)

Tiangong - Pass Details

Date: 09 December 2025
Orbit: 378 x 393 km, 41.5° (Epoch: 19 January)

Event Time Altitude Azimuth Distance (km) Brightness Sun altitude
Exits shadow 11:11:13 18° 218° (SW) 1,036 -0.2 -16.6°
Maximum altitude 11:11:40 19° 206° (SSW) 1,018 -0.1 -16.5°
Drops below altitude 10° 11:14:00 10° 159° (SSE) 1,425 1.2 -16.1°
Sets 11:16:29 0° 140° (SE) 2,283 2.8 -15.7°
